Location: Cahoon Acres
(40.8736°N, 111.8994°W)
Time: 13:34:04
(UTC+00:00)

X-37B - Visible Passes

Search period start: 08 March 2021 00:00
Search period end: 18 March 2021 00:00
Orbit: 383 x 391 km, 45.0° (Epoch: 27 February)

Date Brightness Start Highest point End Pass type
(mag) Time Alt. Az. Time Alt. Az. Time Alt. Az.
10 Mar 3.1 03:17:11 10° SSW 03:17:55 15° SSW 03:17:55 15° SSW visible
11 Mar 2.4 02:19:39 10° S 02:21:51 17° SE 02:22:51 15° ESE visible
11 Mar 3.8 03:54:58 10° WSW 03:55:10 11° WSW 03:55:10 11° WSW visible
12 Mar 0.7 02:56:41 10° SW 02:59:50 56° SSE 02:59:57 55° SE visible
13 Mar 1.6 01:58:41 10° SSW 02:01:34 31° SSE 02:04:27 10° E visible
13 Mar 2.4 03:34:56 10° W 03:36:56 33° W 03:36:56 33° W visible
14 Mar 0.6 02:36:29 10° WSW 02:39:41 86° NNW 02:41:29 24° ENE visible
14 Mar 4.1 04:13:32 10° WNW 04:13:47 12° WNW 04:13:47 12° WNW visible
15 Mar 1.4 03:14:59 10° W 03:18:04 43° N 03:18:14 42° N visible
16 Mar 1.1 02:16:27 10° W 02:19:37 57° NNW 02:22:37 11° ENE visible
16 Mar 3.2 03:53:34 10° WNW 03:54:55 21° NW 03:54:55 21° NW visible
17 Mar 1.7 02:55:03 10° WNW 02:58:05 37° N 02:59:15 27° NE visible
